Regional Weather Roundup
Issued by NWS Newport/Morehead, NC

Current Version | Previous Version | Text Only | Print | Product List | Glossary Off
Versions: 1 2 3 4 5 6 7 8 9 10 11 12 13 14 15 16 17 18 19 20 21 22 23 24 25 26 27 28 29 30 31 32 33 34 35 36 37 38 39 40 41 42 43 44 45 46 47 48 49 50
000 ASUS42 KMHX 121713 RWRMHX WEATHER ROUNDUP FOR EASTERN NORTH CAROLINA NATIONAL WEATHER SERVICE NEWPORT/MOREHEAD CITY NC 1200 PM EST TUE DEC 12 2017 NOTE: "FAIR" INDICATES FEW OR NO CLOUDS BELOW 12,000 FEET WITH NO SIGNIFICANT WEATHER AND/OR OBSTRUCTIONS TO VISIBILITY NCZ015>017-031-032-045>047-102-103-121800- NORTH COAST CITY SKY/WX TMP DP RH WIND PRES REMARKS EDENTON SUNNY 55 40 59 W9 29.64F ELIZABETH CITY SUNNY 54 43 66 SW14 29.61F KITTY HAWK MOSUNNY 54 40 59 SW8 29.60F MANTEO MOSUNNY 54 40 59 W14 29.61F $$ NCZ045>047-081-094-103-104-121800- CENTRAL COAST CITY SKY/WX TMP DP RH WIND PRES REMARKS FRISCO MOSUNNY 63 47 55 SW22G32 29.63F $$ NCZ095-097-098-100-101-121800- SOUTHERN COAST CITY SKY/WX TMP DP RH WIND PRES REMARKS BEAUFORT SUNNY 59 50 72 SW14 29.65F CEDAR ISLAND NOT AVBL JACKSONVILLE PTSUNNY 60 41 49 SW12G18 29.65F PINEY ISLAND N/A N/A N/A N/A SW24G32 29.63F WILMINGTON SUNNY 63 40 42 SW20G28 29.66F $$ NCZ011>013-027>030-043-044-078>080-089-090>093-098-121800- COASTAL PLAIN CITY SKY/WX TMP DP RH WIND PRES REMARKS AHOSKIE CLOUDY 49 38 68 CALM 29.63F CLINTON SUNNY 55 40 57 W10G16 29.68F ELIZABETHTOWN NOT AVBL GOLDSBORO MOSUNNY 54 38 55 SW13 29.64F GREENVILLE MOSUNNY 54 37 54 W8 29.68F HAVELOCK SUNNY 63 41 44 SW24 29.64F KENANSVILLE SUNNY 55 39 54 SW10 29.67F KINSTON SUNNY 55 39 54 SW12G17 29.66 NEW BERN MOSUNNY 56 40 55 SW12 29.65F RICHLANDS SUNNY 57 41 55 SW12 29.67F ROCKY MOUNT CLOUDY 50 39 66 SW8 29.65F WASHINGTON SUNNY 56 38 51 W13G18 29.65F WHITEVILLE SUNNY 56 39 53 S12G17 29.69F $$ AMZ130-135-150-152-154-156-158-170-250-252-270-ANZ085-086-088-633-658-670-121800- MARINE OBSERVATIONS STATION/POSITION TIME TEMP WIND PRES WAVE SWELL AIR SEA DIR/SP/G HT/PER HT/PER (UTC) (F) (DEG/KT/KT) (MB) (FT/S) (FT/S) CHESAPEAKE LIGHT NOT AVBL 64 E VA BEACH 1650 56 61 240/ 23/ 27 1001.8 7/ 6 DUCK 1642 51 55 230/ 16/ 19 1001.9 2 E DUCK 1700 56 N/A 2/ 8 OREGON INLET 1642 53 46 220/ 15/ 18 1002.9 13E OREGON INLT 1648 58 N/A 5/ 5 2/ 8 HATTERAS CG 1642 61 56 230/ 20/ 28 1003.3 DIAMOND BUOY 1700 65 74 230/ 29/ 37 1003.6 CAPE LOOKOUT 1700 220/ 15/ 19 1004.3 BEAUFORT LAB 1642 58 52 250/ 5/ 12 1004.4 30 SE NEW RVR IN 1608 62 66 220/ 21/ 27 1005.8 30 SE NEW RVR IN 1700 66 N/A 7/ 7 27 SE WRIGHTSVLE 1608 62 65 220/ 23/ 31 1006.7 5 SE WRIGHTSVLE 1608 58 58 230/ 17/ 23 1006.0 225 S CAPE HAT 1650 70 75 220/ 23/ 27 1009.6 7/ 7 2/ 9 41 SE CHARLESTON 1700 64 74 230/ 23/ 31 1006.7 $$

USA.gov is the U.S. government's official web portal to all federal, state and local government web resources and services.